,,PA_Meas_PMT16A,,PR_Meas_QMR101_102,,RH_Meas_QMH101,,SR_Meas_QMS101,,TA_Meas_QMH101,,GenWind,,GenWind,
time,status,PA,status,PR,status,RH,status,SR,status,TA,status,DirAvg,status,SpdAvg,
2015-02-21, 07:19:04,VALID,918.037,VALID,0,VALID,85.8168,VALID,94.5482,VALID,18.9438,VALID,147,VALID,0.283203,
2015-02-21, 07:20:04,VALID,918.011,VALID,0,VALID,85.1917,VALID,98.4161,VALID,19.0413,VALID,137,VALID,0,
2015-02-21, 07:21:04,VALID,918.059,VALID,0,VALID,84.8562,VALID,102.391,VALID,19.0788,VALID,137,VALID,0,
2015-02-21, 07:22:04,VALID,918.09,VALID,0,VALID,83.9109,VALID,106.044,VALID,19.1178,VALID,147,VALID,0,
2015-02-21, 07:23:04,VALID,918.096,VALID,0,VALID,83.3163,VALID,109.912,VALID,19.1583,VALID,148,VALID,0,
2015-02-21, 07:24:04,VALID,918.112,VALID,0,VALID,82.615,VALID,113.243,VALID,19.1373,VALID,156,VALID,0,
2015-02-21, 07:25:04,VALID,918.11,VALID,0,VALID,82.493,VALID,116.574,VALID,19.1373,VALID,140,VALID,0,
2015-02-21, 07:26:04,VALID,918.176,VALID,0,VALID,82.2567,VALID,118.615,VALID,19.1778,VALID,156,VALID,0,
2015-02-21, 07:27:04,VALID,918.144,VALID,0,VALID,81.9517,VALID,119.582,VALID,19.1958,VALID,165,VALID,0.0304688,
2015-02-21, 07:28:04,VALID,918.185,VALID,0,VALID,82.0966,VALID,121.838,VALID,19.2348,VALID,165,VALID,0,
2015-02-21, 07:29:04,VALID,918.178,VALID,0,VALID,81.2885,VALID,125.062,VALID,19.2543,VALID,164,VALID,0,
2015-02-21, 07:30:04,VALID,918.163,VALID,0,VALID,81.319,VALID,127.533,VALID,19.2738,VALID,164,VALID,0,
2015-02-21, 07:31:04,VALID,918.211,VALID,0,VALID,81.3266,VALID,128.177,VALID,19.2933,VALID,158,VALID,0,
2015-02-21, 07:32:04,VALID,918.2,VALID,0,VALID,80.9988,VALID,128.607,VALID,19.3128,VALID,154,VALID,0,
2015-02-21, 07:33:04,VALID,918.2,VALID,0,VALID,81.0293,VALID,133.334,VALID,19.3908,VALID,153,VALID,0,
2015-02-21, 07:34:04,VALID,918.223,VALID,0,VALID,80.2593,VALID,138.384,VALID,19.5078,VALID,151,VALID,0,
2015-02-21, 07:35:04,VALID,918.255,VALID,0,VALID,79.1463,VALID,141.178,VALID,19.5663,VALID,158,VALID,0,
2015-02-21, 07:36:04,VALID,918.238,VALID,0,VALID,79.3445,VALID,143.649,VALID,19.5858,VALID,156,VALID,0,
2015-02-21, 07:37:04,VALID,918.258,VALID,0,VALID,79.0167,VALID,146.55,VALID,19.5843,VALID,157,VALID,0,
2015-02-21, 07:38:04,VALID,918.292,VALID,0,VALID,79.4741,VALID,148.484,VALID,19.6248,VALID,158,VALID,0,
2015-02-21, 07:39:04,VALID,918.292,VALID,0,VALID,79.8705,VALID,151.814,VALID,19.7013,VALID,158,VALID,0,
2015-02-21, 07:40:04,VALID,918.297,VALID,0,VALID,79.8934,VALID,151.385,VALID,19.7793,VALID,158,VALID,0,
2015-02-21, 07:41:04,VALID,918.325,VALID,0,VALID,78.8947,VALID,156.542,VALID,19.8573,VALID,160,VALID,0,
2015-02-21, 07:42:04,VALID,918.309,VALID,0,VALID,78.5974,VALID,163.096,VALID,19.9158,VALID,160,VALID,0.0484375,
2015-02-21, 07:43:04,VALID,918.325,VALID,0,VALID,78.605,VALID,167.286,VALID,19.9353,VALID,165,VALID,0.782031,
2015-02-21, 07:44:04,VALID,918.34,VALID,0,VALID,78.5974,VALID,171.261,VALID,19.9743,VALID,165,VALID,0.552344,
2015-02-21, 07:45:04,VALID,918.375,VALID,0,VALID,77.6826,VALID,175.989,VALID,20.0718,VALID,165,VALID,1.05234,
2015-02-21, 07:46:04,VALID,918.37,VALID,0,VALID,77.21,VALID,180.286,VALID,20.1108,VALID,165,VALID,0.705078,
2015-02-21, 07:47:04,VALID,918.374,VALID,0,VALID,77.1109,VALID,184.584,VALID,20.2083,VALID,165,VALID,0.633984,
2015-02-21, 07:48:04,VALID,918.366,VALID,0,VALID,76.196,VALID,187.485,VALID,20.2848,VALID,165,VALID,0.547656,
2015-02-21, 07:49:04,VALID,918.402,VALID,0,VALID,74.9839,VALID,194.683,VALID,20.4634,VALID,165,VALID,0.632422,
2015-02-21, 07:50:04,VALID,918.437,VALID,0,VALID,75.3651,VALID,200.378,VALID,20.5789,VALID,165,VALID,0.358984,
2015-02-21, 07:51:04,VALID,918.457,VALID,0,VALID,75.1821,VALID,205.965,VALID,20.6959,VALID,165,VALID,0.261328,
2015-02-21, 07:52:04,VALID,918.442,VALID,0,VALID,73.627,VALID,208.221,VALID,20.8129,VALID,165,VALID,0.705469,
2015-02-21, 07:53:04,VALID,918.504,VALID,0,VALID,73.444,VALID,211.229,VALID,20.7934,VALID,165,VALID,0.974609,
2015-02-21, 07:54:04,VALID,918.506,VALID,0,VALID,73.97,VALID,214.99,VALID,20.8309,VALID,165,VALID,0.584766,
2015-02-21, 07:55:04,VALID,918.505,VALID,0,VALID,73.8328,VALID,221.329,VALID,20.8699,VALID,165,VALID,0.877734,
2015-02-21, 07:56:04,VALID,918.51,VALID,0,VALID,72.9485,VALID,225.949,VALID,20.9089,VALID,165,VALID,0,
2015-02-21, 07:57:04,VALID,918.515,VALID,0,VALID,73.6574,VALID,231.536,VALID,20.9479,VALID,165,VALID,0,
2015-02-21, 07:58:04,VALID,918.522,VALID,0,VALID,73.9624,VALID,233.685,VALID,21.008,VALID,166,VALID,0,
2015-02-21, 07:59:04,VALID,918.526,VALID,0,VALID,71.4695,VALID,236.8,VALID,21.0275,VALID,165,VALID,0,
2015-02-21, 08:00:04,VALID,918.529,VALID,0,VALID,71.7973,VALID,239.916,VALID,21.008,VALID,165,VALID,0.110547,
2015-02-21, 08:01:04,VALID,918.518,VALID,0,VALID,72.5063,VALID,243.569,VALID,20.9479,VALID,165,VALID,0.664453,
2015-02-21, 08:02:04,VALID,918.517,VALID,0,VALID,73.4745,VALID,246.792,VALID,20.9495,VALID,166,VALID,0.642969,
2015-02-21, 08:03:04,VALID,918.544,VALID,0,VALID,72.0489,VALID,247.544,VALID,21.0259,VALID,164,VALID,0.945703,
2015-02-21, 08:04:04,VALID,918.559,VALID,0,VALID,71.8736,VALID,253.669,VALID,21.0649,VALID,166,VALID,0.771484,
2015-02-21, 08:05:04,VALID,918.563,VALID,0,VALID,72.0337,VALID,254.958,VALID,21.1429,VALID,166,VALID,0.807031,
2015-02-21, 08:06:04,VALID,918.549,VALID,0,VALID,71.7363,VALID,256.677,VALID,21.2795,VALID,166,VALID,0.306641,
2015-02-21, 08:07:04,VALID,918.571,VALID,0,VALID,71.5153,VALID,258.074,VALID,21.377,VALID,166,VALID,0.694531,
2015-02-21, 08:08:04,VALID,918.62,VALID,0,VALID,70.3108,VALID,263.661,VALID,21.455,VALID,166,VALID,1.13164,
2015-02-21, 08:09:04,VALID,918.614,VALID,0,VALID,70.5471,VALID,267.743,VALID,21.3981,VALID,166,VALID,1.27344,
2015-02-21, 08:10:04,VALID,918.626,VALID,0,VALID,71.7211,VALID,272.148,VALID,21.3185,VALID,164,VALID,0.0414063,
2015-02-21, 08:11:04,VALID,918.667,VALID,0,VALID,71.0884,VALID,274.19,VALID,21.3965,VALID,157,VALID,0,
2015-02-21, 08:12:04,VALID,918.644,VALID,0,VALID,70.9359,VALID,278.487,VALID,21.4355,VALID,150,VALID,0,
2015-02-21, 08:13:04,VALID,918.685,VALID,0,VALID,71.9727,VALID,282.14,VALID,21.3965,VALID,154,VALID,0,
2015-02-21, 08:14:04,VALID,918.693,VALID,0,VALID,72.0184,VALID,284.719,VALID,21.4355,VALID,161,VALID,0,
2015-02-21, 08:15:04,VALID,918.706,VALID,0,VALID,72.7426,VALID,289.124,VALID,21.5152,VALID,161,VALID,0,
2015-02-21, 08:16:04,VALID,918.707,VALID,0,VALID,71.5229,VALID,289.984,VALID,21.6323,VALID,153,VALID,0,
2015-02-21, 08:17:04,VALID,918.725,VALID,0,VALID,71.744,VALID,298.042,VALID,21.7298,VALID,143,VALID,0,
2015-02-21, 08:18:04,VALID,918.765,VALID,0,VALID,70.5928,VALID,297.827,VALID,21.7688,VALID,176,VALID,0,
2015-02-21, 08:19:04,VALID,918.757,VALID,0,VALID,69.983,VALID,301.587,VALID,21.7477,VALID,174,VALID,0.454297,
2015-02-21, 08:20:04,VALID,918.76,VALID,0,VALID,71.2408,VALID,312.009,VALID,21.6696,VALID,161,VALID,0,
2015-02-21, 08:21:04,VALID,918.758,VALID,0,VALID,71.7287,VALID,315.34,VALID,21.6891,VALID,161,VALID,0,
2015-02-21, 08:22:04,VALID,918.755,VALID,0,VALID,71.1798,VALID,317.166,VALID,21.8045,VALID,161,VALID,0,
2015-02-21, 08:23:04,VALID,918.792,VALID,0,VALID,70.9664,VALID,321.034,VALID,21.8436,VALID,172,VALID,0.475781,
2015-02-21, 08:24:04,VALID,918.837,VALID,0,VALID,71.2866,VALID,325.762,VALID,21.6485,VALID,170,VALID,0.51875,
2015-02-21, 08:25:04,VALID,918.805,VALID,0,VALID,71.7592,VALID,327.266,VALID,21.5737,VALID,170,VALID,0,
2015-02-21, 08:26:04,VALID,918.835,VALID,0,VALID,72.3843,VALID,327.158,VALID,21.5136,VALID,163,VALID,1.39063,
2015-02-21, 08:28:04,VALID,918.85,VALID,0,VALID,74.1225,VALID,340.481,VALID,21.4746,VALID,176,VALID,1.5543,
2015-02-21, 08:29:04,VALID,918.853,VALID,0,VALID,73.4135,VALID,340.159,VALID,21.5136,VALID,170,VALID,1.52148,
2015-02-21, 08:30:04,VALID,918.841,VALID,0,VALID,74.3817,VALID,342.737,VALID,21.5916,VALID,173,VALID,1.46328,
2015-02-21, 08:31:04,VALID,918.866,VALID,0,VALID,74.031,VALID,339.944,VALID,21.7672,VALID,170,VALID,0.00117188,
2015-02-21, 08:32:04,VALID,918.867,VALID,0,VALID,73.9243,VALID,331.349,VALID,21.8647,VALID,167,VALID,0,
2015-02-21, 08:33:04,VALID,918.909,VALID,0,VALID,73.8938,VALID,339.299,VALID,22.0777,VALID,153,VALID,0,
2015-02-21, 08:34:04,VALID,918.892,VALID,0,VALID,72.8036,VALID,344.564,VALID,22.333,VALID,185,VALID,0,
2015-02-21, 08:35:04,VALID,918.88,VALID,0,VALID,72.4301,VALID,344.671,VALID,22.4501,VALID,170,VALID,0,
2015-02-21, 08:36:04,VALID,918.918,VALID,0,VALID,72.8036,VALID,351.44,VALID,22.5477,VALID,163,VALID,0.101563,
2015-02-21, 08:37:04,VALID,918.906,VALID,0,VALID,71.7745,VALID,358.316,VALID,22.6647,VALID,157,VALID,0.737109,
2015-02-21, 08:38:04,VALID,918.943,VALID,0,VALID,71.4771,VALID,367.019,VALID,22.7021,VALID,177,VALID,1.33945,
2015-02-21, 08:39:04,VALID,918.919,VALID,0,VALID,71.2256,VALID,356.597,VALID,22.7996,VALID,186,VALID,0.947266,
2015-02-21, 08:40:04,VALID,918.934,VALID,0,VALID,71.6296,VALID,376.796,VALID,22.9167,VALID,169,VALID,0,
2015-02-21, 08:41:04,VALID,918.92,VALID,0,VALID,72.6893,VALID,376.474,VALID,23.0533,VALID,168,VALID,0,
2015-02-21, 08:42:04,VALID,918.965,VALID,0,VALID,70.0668,VALID,374.647,VALID,23.1722,VALID,176,VALID,0.389062,
2015-02-21, 08:43:04,VALID,918.959,VALID,0,VALID,70.7377,VALID,366.804,VALID,23.229,VALID,151,VALID,0.00351562,
2015-02-21, 08:44:04,VALID,918.938,VALID,0,VALID,69.7009,VALID,365.192,VALID,23.2875,VALID,154,VALID,0,
2015-02-21, 08:45:04,VALID,918.902,VALID,0,VALID,70.8673,VALID,383.135,VALID,23.3265,VALID,128,VALID,0,
2015-02-21, 08:46:04,VALID,918.947,VALID,0,VALID,69.5027,VALID,385.606,VALID,23.2875,VALID,160,VALID,0,
2015-02-21, 08:47:04,VALID,918.941,VALID,0,VALID,69.6323,VALID,378.945,VALID,23.3265,VALID,141,VALID,0,
2015-02-21, 08:48:04,VALID,918.922,VALID,0,VALID,69.739,VALID,393.02,VALID,23.504,VALID,133,VALID,0,
2015-02-21, 08:49:04,VALID,918.929,VALID,0,VALID,70.3108,VALID,391.945,VALID,23.5022,VALID,163,VALID,0,
2015-02-21, 08:50:04,VALID,918.93,VALID,0,VALID,69.6704,VALID,399.681,VALID,23.6584,VALID,120,VALID,0,
2015-02-21, 08:51:04,VALID,918.943,VALID,0,VALID,68.9081,VALID,405.913,VALID,23.6175,VALID,140,VALID,0.415625,
2015-02-21, 08:52:04,VALID,918.939,VALID,0,VALID,69.5027,VALID,410.103,VALID,23.5803,VALID,126,VALID,0.103125,
2015-02-21, 08:53:04,VALID,918.943,VALID,0,VALID,69.0072,VALID,391.301,VALID,23.5412,VALID,153,VALID,0.0417969,
2015-02-21, 08:54:04,VALID,918.915,VALID,0,VALID,68.9309,VALID,387.54,VALID,23.4614,VALID,133,VALID,1.44336,
2015-02-21, 08:55:04,VALID,918.927,VALID,0,VALID,69.3197,VALID,429.442,VALID,23.3443,VALID,110,VALID,1.54648,
2015-02-21, 08:56:04,VALID,918.911,VALID,0,VALID,70.8978,VALID,432.451,VALID,23.3638,VALID,138,VALID,0.801562,
2015-02-21, 08:57:04,VALID,918.898,VALID,0,VALID,70.6919,VALID,434.277,VALID,23.5608,VALID,118,VALID,0.000390625,
2015-02-21, 08:58:04,VALID,918.89,VALID,0,VALID,70.4099,VALID,432.451,VALID,23.4827,VALID,152,VALID,0.0195313,
2015-02-21, 08:59:04,VALID,918.906,VALID,0,VALID,68.9004,VALID,440.079,VALID,23.5022,VALID,142,VALID,0,
2015-02-21, 09:00:04,VALID,918.898,VALID,0,VALID,70.0135,VALID,444.377,VALID,23.6584,VALID,108,VALID,0,
2015-02-21, 09:01:04,VALID,918.928,VALID,0,VALID,67.8941,VALID,447.17,VALID,23.8731,VALID,167,VALID,0.582422,
2015-02-21, 09:02:04,VALID,918.928,VALID,0,VALID,68.1228,VALID,450.823,VALID,23.9707,VALID,151,VALID,0,
2015-02-21, 09:03:04,VALID,918.929,VALID,0,VALID,67.208,VALID,453.402,VALID,24.0878,VALID,77,VALID,1.22617,
2015-02-21, 09:04:04,VALID,918.935,VALID,0,VALID,69.2359,VALID,457.484,VALID,23.9707,VALID,78,VALID,0.0527344,
2015-02-21, 09:05:04,VALID,918.977,VALID,0,VALID,68.5345,VALID,459.956,VALID,23.9121,VALID,88,VALID,1.25781,
2015-02-21, 09:06:04,VALID,918.962,VALID,0,VALID,66.7354,VALID,462.427,VALID,23.8731,VALID,118,VALID,1.78242,
2015-02-21, 09:07:04,VALID,919.005,VALID,0,VALID,69.4036,VALID,466.08,VALID,23.7346,VALID,103,VALID,0.802344,
2015-02-21, 09:08:04,VALID,919.025,VALID,0,VALID,69.1749,VALID,469.088,VALID,23.795,VALID,140,VALID,1.30977,
2015-02-21, 09:09:04,VALID,919.054,VALID,0,VALID,69.1215,VALID,471.882,VALID,23.7364,VALID,142,VALID,1.12773,
2015-02-21, 09:10:04,VALID,919.017,VALID,0,VALID,68.2219,VALID,477.146,VALID,23.8322,VALID,151,VALID,0,
2015-02-21, 09:11:04,VALID,919.089,VALID,0,VALID,69.9143,VALID,479.08,VALID,23.9493,VALID,99,VALID,1.7668,
2015-02-21, 09:12:04,VALID,919.057,VALID,0,VALID,67.5282,VALID,482.303,VALID,24.0488,VALID,112,VALID,0.895312,
2015-02-21, 09:13:04,VALID,919.037,VALID,0,VALID,67.1242,VALID,485.956,VALID,24.086,VALID,118,VALID,1.53047,
2015-02-21, 09:14:04,VALID,919.079,VALID,0,VALID,69.3045,VALID,489.394,VALID,23.9707,VALID,119,VALID,1.85625,
2015-02-21, 09:15:04,VALID,919.033,VALID,0,VALID,69.5484,VALID,492.403,VALID,23.9689,VALID,58,VALID,0.666016,
2015-02-21, 09:16:04,VALID,919.036,VALID,0,VALID,67.1166,VALID,495.841,VALID,24.1464,VALID,110,VALID,0.0160156,
2015-02-21, 09:17:04,VALID,919.058,VALID,0,VALID,66.7049,VALID,497.238,VALID,24.2226,VALID,145,VALID,0,
2015-02-21, 09:18:04,VALID,919.044,VALID,0,VALID,66.6134,VALID,501.75,VALID,24.1836,VALID,114,VALID,2.23047,
2015-02-21, 09:19:04,VALID,919.027,VALID,0,VALID,66.7049,VALID,505.081,VALID,24.1464,VALID,131,VALID,0.924609,
2015-02-21, 09:20:04,VALID,919.012,VALID,0,VALID,66.1712,VALID,508.519,VALID,24.2031,VALID,51,VALID,1.07148,
2015-02-21, 09:21:04,VALID,918.992,VALID,0,VALID,66.8269,VALID,512.387,VALID,24.3007,VALID,76,VALID,1.46406,
2015-02-21, 09:22:04,VALID,918.993,VALID,0,VALID,66.6287,VALID,515.18,VALID,24.3983,VALID,152,VALID,0.142578,
2015-02-21, 09:23:04,VALID,919.03,VALID,0,VALID,66.6134,VALID,518.081,VALID,24.3398,VALID,115,VALID,1.27891,
2015-02-21, 09:24:04,VALID,919.043,VALID,0,VALID,66.9717,VALID,520.982,VALID,24.3398,VALID,132,VALID,1.38516,
2015-02-21, 09:25:04,VALID,919.034,VALID,0,VALID,66.5295,VALID,523.453,VALID,24.3202,VALID,109,VALID,1.05898,
2015-02-21, 09:26:04,VALID,919.05,VALID,0,VALID,66.6363,VALID,526.569,VALID,24.3593,VALID,70,VALID,0.533594,
2015-02-21, 09:27:04,VALID,919.04,VALID,0,VALID,66.1331,VALID,529.363,VALID,24.3983,VALID,84,VALID,0.259375,
2015-02-21, 09:28:04,VALID,919.059,VALID,0,VALID,65.1421,VALID,532.371,VALID,24.3983,VALID,113,VALID,2.27109,
2015-02-21, 09:29:04,VALID,919.079,VALID,0,VALID,66.7659,VALID,535.379,VALID,24.1641,VALID,116,VALID,1.34492,
2015-02-21, 09:30:04,VALID,919.044,VALID,0,VALID,65.973,VALID,539.462,VALID,24.1427,VALID,107,VALID,1.41094,
2015-02-21, 09:31:04,VALID,919.062,VALID,0,VALID,67.0708,VALID,543.437,VALID,24.2226,VALID,77,VALID,1.08828,
2015-02-21, 09:32:04,VALID,919.038,VALID,0,VALID,67.9856,VALID,545.586,VALID,24.2812,VALID,111,VALID,0.0855469,
2015-02-21, 09:33:04,VALID,919.029,VALID,0,VALID,66.682,VALID,549.239,VALID,24.3983,VALID,126,VALID,0.351953,
2015-02-21, 09:34:04,VALID,919.059,VALID,0,VALID,63.5793,VALID,551.173,VALID,24.5331,VALID,131,VALID,0.787891,
2015-02-21, 09:35:04,VALID,919.071,VALID,0,VALID,65.4699,VALID,554.396,VALID,24.5526,VALID,173,VALID,0.497656,
2015-02-21, 09:36:04,VALID,919.054,VALID,0,VALID,65.6376,VALID,557.727,VALID,24.5136,VALID,93,VALID,0.335156,
2015-02-21, 09:37:04,VALID,919.038,VALID,0,VALID,64.8295,VALID,562.777,VALID,24.5722,VALID,180,VALID,0.874219,
2015-02-21, 09:38:04,VALID,919.051,VALID,0,VALID,65.0354,VALID,564.066,VALID,24.5935,VALID,101,VALID,2.32813,
2015-02-21, 09:39:04,VALID,919.053,VALID,0,VALID,65.813,VALID,567.826,VALID,24.6112,VALID,133,VALID,0.254297,
2015-02-21, 09:40:04,VALID,919.056,VALID,0,VALID,64.334,VALID,569.008,VALID,24.6912,VALID,145,VALID,1.35273,
2015-02-21, 09:41:04,VALID,919.066,VALID,0,VALID,64.1434,VALID,575.455,VALID,24.904,VALID,90,VALID,1.32266,
2015-02-21, 09:42:04,VALID,919.047,VALID,0,VALID,63.6784,VALID,575.885,VALID,25.1012,VALID,66,VALID,2.15859,
2015-02-21, 09:43:04,VALID,919.079,VALID,0,VALID,62.2986,VALID,577.926,VALID,25.0817,VALID,88,VALID,0.758594,
2015-02-21, 09:44:04,VALID,919.03,VALID,0,VALID,62.2376,VALID,582.653,VALID,24.9664,VALID,105,VALID,2.68164,
2015-02-21, 09:45:04,VALID,919.033,VALID,0,VALID,62.5882,VALID,585.662,VALID,24.6912,VALID,105,VALID,2.38086,
2015-02-21, 09:46:04,VALID,919.031,VALID,0,VALID,63.4421,VALID,587.918,VALID,24.654,VALID,93,VALID,1.99492,
2015-02-21, 09:47:04,VALID,919.039,VALID,0,VALID,63.7394,VALID,592.753,VALID,24.6521,VALID,100,VALID,1.90508,
2015-02-21, 09:48:04,VALID,919.066,VALID,0,VALID,62.4968,VALID,596.513,VALID,24.7302,VALID,71,VALID,0,
2015-02-21, 09:49:04,VALID,918.997,VALID,0,VALID,64.334,VALID,600.381,VALID,24.8474,VALID,73,VALID,1.09258,
2015-02-21, 09:50:04,VALID,919.05,VALID,0,VALID,64.1358,VALID,603.067,VALID,24.945,VALID,59,VALID,2.53125,
2015-02-21, 09:51:04,VALID,919.035,VALID,0,VALID,58.7765,VALID,605.216,VALID,24.8864,VALID,128,VALID,0.757422,
2015-02-21, 09:52:04,VALID,919.046,VALID,0,VALID,62.6416,VALID,609.406,VALID,24.9255,VALID,105,VALID,0.692187,
2015-02-21, 09:53:04,VALID,918.997,VALID,0,VALID,61.6277,VALID,612.629,VALID,24.945,VALID,84,VALID,2.06484,
2015-02-21, 09:54:04,VALID,918.995,VALID,0,VALID,62.0394,VALID,615.96,VALID,24.8669,VALID,64,VALID,1.39531,
2015-02-21, 09:55:04,VALID,919.048,VALID,0,VALID,63.3277,VALID,617.249,VALID,24.8669,VALID,71,VALID,1.15273,
2015-02-21, 09:56:04,VALID,919.027,VALID,0,VALID,58.6546,VALID,621.869,VALID,24.8669,VALID,106,VALID,1.31953,
2015-02-21, 09:57:04,VALID,919.054,VALID,0,VALID,57.2595,VALID,621.547,VALID,24.7497,VALID,122,VALID,1.99844,
2015-02-21, 09:58:04,VALID,919.095,VALID,0,VALID,58.7689,VALID,625.845,VALID,24.7693,VALID,109,VALID,0.540234,
2015-02-21, 09:59:04,VALID,919.059,VALID,0,VALID,60.1564,VALID,630.68,VALID,24.8669,VALID,85,VALID,1.36953,
2015-02-21, 10:00:04,VALID,919.042,VALID,0,VALID,58.4411,VALID,630.894,VALID,24.8864,VALID,68,VALID,0.121875,
2015-02-21, 10:01:04,VALID,919.056,VALID,0,VALID,59.8286,VALID,634.977,VALID,25.0621,VALID,89,VALID,0.241797,
2015-02-21, 10:02:04,VALID,919.065,VALID,0,VALID,58.1819,VALID,637.771,VALID,25.1793,VALID,133,VALID,0.825781,
2015-02-21, 10:03:04,VALID,919.057,VALID,0,VALID,59.8286,VALID,641.746,VALID,25.1598,VALID,112,VALID,1.99336,
2015-02-21, 10:04:04,VALID,919.086,VALID,0,VALID,60.103,VALID,645.077,VALID,25.0426,VALID,116,VALID,1.02891,
2015-02-21, 10:05:04,VALID,919.065,VALID,0,VALID,61.7192,VALID,644.862,VALID,25.0231,VALID,129,VALID,0.482812,
2015-02-21, 10:06:04,VALID,919.046,VALID,0,VALID,60.4766,VALID,647.548,VALID,25.1988,VALID,137,VALID,0,
2015-02-21, 10:07:04,VALID,919.034,VALID,0,VALID,58.4945,VALID,650.878,VALID,25.2769,VALID,161,VALID,0,
2015-02-21, 10:08:04,VALID,919.043,VALID,0,VALID,60.1792,VALID,653.457,VALID,25.3141,VALID,149,VALID,0.903516,
2015-02-21, 10:09:04,VALID,919.032,VALID,0,VALID,57.168,VALID,655.391,VALID,25.3531,VALID,183,VALID,0.923437,
2015-02-21, 10:10:04,VALID,919.045,VALID,0,VALID,54.9725,VALID,659.796,VALID,25.4136,VALID,121,VALID,0.158594,
2015-02-21, 10:11:04,VALID,919.038,VALID,0,VALID,57.1527,VALID,660.871,VALID,25.5289,VALID,131,VALID,0,
2015-02-21, 10:12:04,VALID,919.034,VALID,0,VALID,55.5213,VALID,664.309,VALID,25.5289,VALID,157,VALID,1.16367,
2015-02-21, 10:13:04,VALID,919.041,VALID,0,VALID,54.4312,VALID,664.094,VALID,25.4898,VALID,128,VALID,0.202344,
2015-02-21, 10:14:04,VALID,919.033,VALID,0,VALID,55.9711,VALID,667.532,VALID,25.5289,VALID,124,VALID,0.0289063,
2015-02-21, 10:15:04,VALID,919.015,VALID,0,VALID,55.8491,VALID,672.044,VALID,25.6655,VALID,110,VALID,0,
2015-02-21, 10:16:04,VALID,919.001,VALID,0,VALID,52.35,VALID,673.441,VALID,25.7651,VALID,144,VALID,0.0417969,
2015-02-21, 10:17:04,VALID,919.01,VALID,0,VALID,51.5648,VALID,676.664,VALID,25.978,VALID,177,VALID,0,
2015-02-21, 10:18:04,VALID,919.006,VALID,0,VALID,42.5463,VALID,678.921,VALID,26.1558,VALID,183,VALID,0,
2015-02-21, 10:19:04,VALID,918.983,VALID,0,VALID,38.9633,VALID,683.003,VALID,26.4272,VALID,184,VALID,0,
2015-02-21, 10:20:04,VALID,919.01,VALID,0,VALID,45.5347,VALID,682.359,VALID,26.7007,VALID,183,VALID,0,
2015-02-21, 10:21:04,VALID,918.975,VALID,0,VALID,49.9181,VALID,682.574,VALID,26.7593,VALID,120,VALID,0.34375,
2015-02-21, 10:22:04,VALID,918.982,VALID,0,VALID,52.5101,VALID,683.755,VALID,26.6226,VALID,125,VALID,0.0265625,
2015-02-21, 10:23:04,VALID,918.93,VALID,0,VALID,54.4617,VALID,682.896,VALID,26.4272,VALID,120,VALID,1.60312,
2015-02-21, 10:24:04,VALID,918.961,VALID,0,VALID,50.8634,VALID,685.689,VALID,26.1733,VALID,104,VALID,1.83242,
2015-02-21, 10:25:04,VALID,918.924,VALID,0,VALID,51.885,VALID,685.797,VALID,25.8804,VALID,96,VALID,0.0121094,
2015-02-21, 10:26:04,VALID,918.894,VALID,0,VALID,53.6079,VALID,686.549,VALID,25.9389,VALID,94,VALID,0,
2015-02-21, 10:27:04,VALID,918.931,VALID,0,VALID,51.3894,VALID,687.838,VALID,26.1167,VALID,48,VALID,0.566016,
2015-02-21, 10:28:04,VALID,918.928,VALID,0,VALID,51.6486,VALID,690.309,VALID,26.1147,VALID,2,VALID,0.520703,
2015-02-21, 10:29:04,VALID,918.889,VALID,0,VALID,47.9284,VALID,694.07,VALID,26.1147,VALID,4,VALID,1.29766,
2015-02-21, 10:30:04,VALID,918.914,VALID,0,VALID,50.3984,VALID,694.822,VALID,26.1127,VALID,6,VALID,1.09648,
2015-02-21, 10:31:04,VALID,918.891,VALID,0,VALID,51.4276,VALID,698.045,VALID,26.2514,VALID,9,VALID,0.0640625,
2015-02-21, 10:32:04,VALID,918.941,VALID,0,VALID,51.4581,VALID,700.301,VALID,26.5054,VALID,360,VALID,0.0792969,
2015-02-21, 10:33:04,VALID,918.895,VALID,0,VALID,51.9536,VALID,701.483,VALID,26.5054,VALID,5,VALID,0.0929687,
2015-02-21, 10:34:04,VALID,918.924,VALID,0,VALID,51.6029,VALID,707.715,VALID,26.5249,VALID,355,VALID,0,
2015-02-21, 10:35:04,VALID,918.917,VALID,0,VALID,52.5711,VALID,710.831,VALID,26.6421,VALID,357,VALID,0,
2015-02-21, 10:36:04,VALID,918.927,VALID,0,VALID,51.2675,VALID,714.161,VALID,26.857,VALID,104,VALID,0,
2015-02-21, 10:37:04,VALID,918.894,VALID,0,VALID,52.4034,VALID,716.74,VALID,26.894,VALID,145,VALID,1.42383,
2015-02-21, 10:38:04,VALID,918.925,VALID,0,VALID,51.0083,VALID,715.773,VALID,26.7182,VALID,147,VALID,0.542969,
2015-02-21, 10:39:04,VALID,918.897,VALID,0,VALID,52.6397,VALID,716.955,VALID,26.896,VALID,111,VALID,0,
2015-02-21, 10:40:04,VALID,918.887,VALID,0,VALID,51.6029,VALID,719.856,VALID,26.7963,VALID,219,VALID,0.0257812,
2015-02-21, 10:41:04,VALID,918.864,VALID,0,VALID,54.2406,VALID,722.542,VALID,26.9546,VALID,25,VALID,1.27773,
2015-02-21, 10:42:04,VALID,918.883,VALID,0,VALID,51.2446,VALID,726.517,VALID,27.0544,VALID,85,VALID,1.39023,
2015-02-21, 10:43:04,VALID,918.895,VALID,0,VALID,54.881,VALID,729.848,VALID,26.7007,VALID,87,VALID,0.122656,
2015-02-21, 10:44:04,VALID,918.857,VALID,0,VALID,52.9827,VALID,731.889,VALID,26.5835,VALID,85,VALID,1.81055,
2015-02-21, 10:45:04,VALID,918.862,VALID,0,VALID,53.6307,VALID,733.823,VALID,26.4488,VALID,52,VALID,1.47773,
2015-02-21, 10:46:04,VALID,918.843,VALID,0,VALID,53.2343,VALID,738.336,VALID,26.4468,VALID,48,VALID,2.35234,
2015-02-21, 10:47:04,VALID,918.874,VALID,0,VALID,53.4097,VALID,738.121,VALID,26.312,VALID,42,VALID,0.572656,
2015-02-21, 10:48:04,VALID,918.843,VALID,0,VALID,54.0119,VALID,736.509,VALID,26.1558,VALID,251,VALID,1.19141,
2015-02-21, 10:49:04,VALID,918.869,VALID,0,VALID,54.2559,VALID,735.22,VALID,26.0952,VALID,251,VALID,0,
2015-02-21, 10:50:04,VALID,918.823,VALID,0,VALID,53.2343,VALID,737.583,VALID,26.2339,VALID,251,VALID,0.00078125,
2015-02-21, 10:51:04,VALID,918.792,VALID,0,VALID,52.9141,VALID,743.815,VALID,26.3882,VALID,251,VALID,0,
2015-02-21, 10:52:04,VALID,918.793,VALID,0,VALID,52.3271,VALID,165.137,VALID,26.6421,VALID,48,VALID,1.59023,
2015-02-21, 10:53:04,VALID,918.828,VALID,0,VALID,53.4859,VALID,748.865,VALID,26.6791,VALID,90,VALID,1.3082,
2015-02-21, 10:54:04,VALID,918.79,VALID,0,VALID,53.0285,VALID,749.08,VALID,26.5249,VALID,107,VALID,1.65625,
2015-02-21, 10:55:04,VALID,918.793,VALID,0,VALID,53.5926,VALID,683.433,VALID,26.3706,VALID,73,VALID,1.47773,
2015-02-21, 10:56:04,VALID,918.799,VALID,0,VALID,55.285,VALID,749.724,VALID,26.4858,VALID,76,VALID,0.0984375,
2015-02-21, 10:57:04,VALID,918.782,VALID,0,VALID,54.0881,VALID,201.452,VALID,26.7788,VALID,81,VALID,0.209375,